"Pseudo-MPEC" for ZTB46DD

Created 2018 Oct 14 2:18:18 UT using Find_Orb

Click here for an explanation of pseudo-MPECs

 
 Astrometry: 
     ZTB46DD  C2018 10 06.36308 01 34 35.71 +01 08 20.1                VNEOCPG96
     ZTB46DD  C2018 10 06.37347 01 34 31.65 +01 11 02.3          21.2 GVNEOCPG96
     ZTB46DD  C2018 10 06.37867 01 34 29.63 +01 12 21.2          20.8 GVNEOCPG96
     ZTB46DD  C2018 10 06.49491 01 33 48.34 +01 40 22.9          21.7 GVNEOCPG96
     ZTB46DD  C2018 10 06.49677 01 33 47.74 +01 40 49.0          20.6 GVNEOCPG96
     ZTB46DD  C2018 10 06.49863 01 33 47.14 +01 41 14.1          21.2 GVNEOCPG96
     ZTB46DD  C2018 10 06.50048 01 33 46.61 +01 41 39.3          21.1 GVNEOCPG96

Station data:
(G96) Mt. Lemmon Survey  (N32.442754 W110.788720)  US/Arizona.  Observers B.
   M. Africano, E. J. Christensen, D. C. Fuls, A. R. Gibbs, A. D. Grauer, J.
   A. Johnson, R. A. Kowalski, S. M. Larson, G. J. Leonard, R. L. Seaman, F.
   C. Shelly. 1.5-m reflector + 10K CCD.

Orbital elements:  ZTB46DD
   Perihelion 2018 Oct 24.306283 TT =  7:21:02 (JD 2458415.806283)
Epoch 2018 Oct  6.0 TT = JDT 2458397.5   Earth MOID: 0.0162   AutoNEOCP
M 343.56175                         (J2000 ecliptic)
n   0.89795662     Peri.   15.76044
a   1.06405924     Node    14.88848
e   0.0473357      Incl.    3.85578
P   1.10/400.90d   H   29.6     G   0.15   q 1.01369116  Q 1.11442732
From 7 observations 2018 Oct. 6 (3.3 hr); mean residual 3".03
Residuals in arcseconds: 
181006 G96  .30-  8.3-    181006 G96  .48+  1.7+    181006 G96  .05-  2.5-    
181006 G96  .06+  2.9+    181006 G96  .02+  .89+    
181006 G96  .25+  6.3+    181006 G96  .49-  .95-    

Ephemerides (geocentric):
Date (UTC) HH   RA              Dec         delta   r     elong  mag
---- -- -- --  -------------   -----------  ------ ------ -----  ---
2018 10 14 02  01 05 26.674   +30 43 59.16  .01812 1.0143 157.1 22.0
2018 10 14 03  01 05 16.759   +30 52 03.37  .01814 1.0143 157.0 22.0
2018 10 14 04  01 05 06.844   +31 00 06.22  .01816 1.0143 156.9 22.0
2018 10 14 05  01 04 56.929   +31 08 07.74  .01818 1.0143 156.7 22.0
2018 10 14 06  01 04 47.013   +31 16 07.90  .01821 1.0143 156.6 22.0
2018 10 14 07  01 04 37.097   +31 24 06.71  .01823 1.0143 156.5 22.0
2018 10 14 08  01 04 27.181   +31 32 04.17  .01825 1.0143 156.4 22.0
2018 10 14 09  01 04 17.265   +31 40 00.28  .01827 1.0142 156.2 22.0
2018 10 14 10  01 04 07.349   +31 47 55.03  .01830 1.0142 156.1 22.0
2018 10 14 11  01 03 57.433   +31 55 48.42  .01832 1.0142 156.0 22.1
2018 10 14 12  01 03 47.517   +32 03 40.46  .01834 1.0142 155.9 22.1
2018 10 14 13  01 03 37.601   +32 11 31.13  .01837 1.0142 155.8 22.1
2018 10 14 14  01 03 27.686   +32 19 20.45  .01839 1.0142 155.6 22.1
2018 10 14 15  01 03 17.771   +32 27 08.41  .01841 1.0142 155.5 22.1
2018 10 14 16  01 03 07.856   +32 34 55.00  .01844 1.0142 155.4 22.1
2018 10 14 17  01 02 57.942   +32 42 40.23  .01846 1.0142 155.3 22.1
2018 10 14 18  01 02 48.029   +32 50 24.09  .01849 1.0142 155.1 22.1
2018 10 14 19  01 02 38.116   +32 58 06.59  .01851 1.0142 155.0 22.1
2018 10 14 20  01 02 28.203   +33 05 47.73  .01853 1.0142 154.9 22.1
2018 10 14 21  01 02 18.291   +33 13 27.50  .01856 1.0142 154.8 22.1
2018 10 14 22  01 02 08.381   +33 21 05.90  .01858 1.0142 154.7 22.1
2018 10 14 23  01 01 58.471   +33 28 42.93  .01861 1.0142 154.5 22.1
2018 10 15 00  01 01 48.561   +33 36 18.59  .01863 1.0141 154.4 22.1
2018 10 15 01  01 01 38.653   +33 43 52.89  .01866 1.0141 154.3 22.1
2018 10 15 02  01 01 28.746   +33 51 25.82  .01868 1.0141 154.2 22.1
2018 10 15 03  01 01 18.840   +33 58 57.38  .01871 1.0141 154.0 22.2
2018 10 15 04  01 01 08.935   +34 06 27.57  .01873 1.0141 153.9 22.2
2018 10 15 05  01 00 59.032   +34 13 56.39  .01876 1.0141 153.8 22.2
2018 10 15 06  01 00 49.129   +34 21 23.84  .01878 1.0141 153.7 22.2
2018 10 15 07  01 00 39.228   +34 28 49.92  .01881 1.0141 153.6 22.2
2018 10 15 08  01 00 29.329   +34 36 14.63  .01883 1.0141 153.5 22.2
2018 10 15 09  01 00 19.431   +34 43 37.98  .01886 1.0141 153.3 22.2
2018 10 15 10  01 00 09.534   +34 50 59.95  .01888 1.0141 153.2 22.2
2018 10 15 11  00 59 59.639   +34 58 20.56  .01891 1.0141 153.1 22.2
2018 10 15 12  00 59 49.746   +35 05 39.79  .01894 1.0141 153.0 22.2
2018 10 15 13  00 59 39.855   +35 12 57.67  .01896 1.0141 152.9 22.2
2018 10 15 14  00 59 29.965   +35 20 14.17  .01899 1.0141 152.7 22.2
2018 10 15 15  00 59 20.077   +35 27 29.30  .01901 1.0141 152.6 22.2
2018 10 15 16  00 59 10.191   +35 34 43.07  .01904 1.0140 152.5 22.2
2018 10 15 17  00 59 00.307   +35 41 55.48  .01907 1.0140 152.4 22.2
2018 10 15 18  00 58 50.425   +35 49 06.52  .01909 1.0140 152.3 22.3
2018 10 15 19  00 58 40.545   +35 56 16.19  .01912 1.0140 152.2 22.3
2018 10 15 20  00 58 30.667   +36 03 24.50  .01915 1.0140 152.1 22.3
2018 10 15 21  00 58 20.792   +36 10 31.45  .01917 1.0140 151.9 22.3
2018 10 15 22  00 58 10.919   +36 17 37.04  .01920 1.0140 151.8 22.3
2018 10 15 23  00 58 01.048   +36 24 41.26  .01923 1.0140 151.7 22.3
2018 10 16 00  00 57 51.179   +36 31 44.13  .01925 1.0140 151.6 22.3
2018 10 16 01  00 57 41.313   +36 38 45.64  .01928 1.0140 151.5 22.3